{"data":{"norad_id":64905,"epoch":"2026-09-20T09:50:32.523360Z","epoch_age_seconds":131992,"freshness":"FRESH","line1":"1 64905U 25157B   26263.41009865  .00011011  00000+0  33645-3 0  9993","line2":"2 64905  53.1566 157.8620 0001112  78.8843 281.2285 15.34408318 65998","mean_motion":15.34408318,"eccentricity":0.0001112,"inclination_deg":53.1566,"raan_deg":157.862,"arg_perigee_deg":78.8843,"mean_anomaly_deg":281.2285,"bstar":0.00033645,"rev_number":6599,"period_min":93.84724933432,"perigee_km":461.91781878431,"apogee_km":463.4392161554,"semimajor_km":6840.8155174699,"source":"CELESTRAK","updated_at":"2026-09-21T09:00:35.453739Z"}}